Language: 


Des rapports , des résumés tant et plus, au choix de chacun....


Données Historiques de Météogheer
Journalier Rapport pour Janvier 26, 2018 Unitée:  Métrique    Impériale   Les deux
Suivant Jour »
Journalier Hebdomadaire Mensuel Annuel Sur mesure
  Max: Min: Moyenne:
Température: 9.1 °C 2.6 °C 5.6 °C
Point de rosée: 9.0 °C 3.0 °C 5.5 °C
Humidité: 98% 87% 96%
Vent: 12.2km/h 0.0km/h 2.1km/h
Rafales: 14.3km/h - -
Vent- - WSW
Pression: 1026.0 hPa 1011.1 hPa -
Pluie: 0.0 mm    
Historical Graphs
 
 
Données tabulaires pour Janvier 26, 2018
Heure Température Point de rosée Pression Vent Vent Rafales Humidité Pluie Taux (Horaire) Conditions
00:04 5.9 °C 6.0 °C 1011.1 hPa SW 4.0 km/h 9.3 km/h 98% 0.0 mm
00:09 5.8 °C 6.0 °C 1011.1 hPa Calm   7.9 km/h 98% 0.0 mm
00:14 5.8 °C 6.0 °C 1011.1 hPa Calm   7.2 km/h 98% 0.0 mm
00:19 5.7 °C 6.0 °C 1011.1 hPa SSW 5.0 km/h 7.2 km/h 98% 0.0 mm
00:24 5.7 °C 6.0 °C 1011.1 hPa South 4.7 km/h 6.9 km/h 98% 0.0 mm
00:29 5.7 °C 6.0 °C 1011.1 hPa South 5.8 km/h 6.9 km/h 98% 0.0 mm
00:34 5.7 °C 6.0 °C 1011.1 hPa SSW 7.6 km/h 9.0 km/h 98% 0.0 mm
00:39 5.6 °C 6.0 °C 1011.1 hPa South 2.6 km/h 9.0 km/h 98% 0.0 mm
00:44 5.5 °C 6.0 °C 1011.1 hPa Calm   6.4 km/h 98% 0.0 mm
00:49 5.4 °C 6.0 °C 1011.1 hPa Calm   5.5 km/h 98% 0.0 mm
00:54 5.2 °C 5.0 °C 1011.1 hPa Calm   3.2 km/h 98% 0.0 mm
00:59 5.0 °C 5.0 °C 1011.1 hPa Calm   3.2 km/h 98% 0.0 mm
01:04 5.0 °C 5.0 °C 1011.1 hPa Calm   4.0 km/h 98% 0.0 mm
01:09 5.0 °C 5.0 °C 1011.1 hPa SSW 2.6 km/h 4.7 km/h 98% 0.0 mm
01:14 5.0 °C 5.0 °C 1011.1 hPa Calm   6.1 km/h 98% 0.0 mm
01:19 5.0 °C 5.0 °C 1011.1 hPa Calm   6.4 km/h 98% 0.0 mm
01:24 5.0 °C 5.0 °C 1011.1 hPa South 5.0 km/h 6.4 km/h 98% 0.0 mm
01:29 5.0 °C 5.0 °C 1011.1 hPa Calm   6.9 km/h 98% 0.0 mm
01:34 5.0 °C 5.0 °C 1011.1 hPa Calm   6.9 km/h 98% 0.0 mm
01:39 5.0 °C 5.0 °C 1011.1 hPa Calm   4.7 km/h 98% 0.0 mm
01:44 5.0 °C 5.0 °C 1011.1 hPa South 3.2 km/h 8.7 km/h 98% 0.0 mm
01:49 4.9 °C 5.0 °C 1012.1 hPa Calm   8.7 km/h 98% 0.0 mm
01:54 4.9 °C 5.0 °C 1012.1 hPa SSE 5.0 km/h 8.7 km/h 98% 0.0 mm
01:59 4.9 °C 5.0 °C 1012.1 hPa Calm   8.7 km/h 98% 0.0 mm
02:04 4.8 °C 5.0 °C 1012.1 hPa Calm   9.3 km/h 98% 0.0 mm
02:09 4.8 °C 5.0 °C 1012.1 hPa Calm   9.3 km/h 98% 0.0 mm
02:14 4.7 °C 5.0 °C 1011.1 hPa SSW 2.6 km/h 6.4 km/h 98% 0.0 mm
02:19 4.7 °C 5.0 °C 1011.1 hPa SSW 3.2 km/h 6.4 km/h 98% 0.0 mm
02:24 4.7 °C 5.0 °C 1011.1 hPa Calm   6.4 km/h 98% 0.0 mm
02:29 4.7 °C 5.0 °C 1011.1 hPa Calm   1.8 km/h 98% 0.0 mm
02:34 4.6 °C 5.0 °C 1011.1 hPa Calm     98% 0.0 mm
02:39 4.5 °C 5.0 °C 1011.1 hPa Calm   2.6 km/h 98% 0.0 mm
02:44 4.4 °C 4.0 °C 1011.1 hPa Calm   3.2 km/h 98% 0.0 mm
02:49 4.3 °C 4.0 °C 1011.1 hPa Calm   4.7 km/h 98% 0.0 mm
02:55 4.3 °C 4.0 °C 1011.1 hPa South 5.0 km/h 5.0 km/h 98% 0.0 mm
03:00 4.3 °C 4.0 °C 1011.1 hPa Calm   6.4 km/h 98% 0.0 mm
03:05 4.4 °C 4.0 °C 1011.1 hPa South 5.0 km/h 6.4 km/h 98% 0.0 mm
03:10 4.4 °C 4.0 °C 1011.1 hPa South 5.5 km/h 6.4 km/h 98% 0.0 mm
03:15 4.4 °C 4.0 °C 1011.1 hPa South 7.6 km/h 9.0 km/h 98% 0.0 mm
03:20 4.3 °C 4.0 °C 1011.1 hPa South 8.7 km/h 9.3 km/h 98% 0.0 mm
03:25 4.3 °C 4.0 °C 1011.1 hPa SSW 6.9 km/h 9.3 km/h 98% 0.0 mm
03:30 4.4 °C 4.0 °C 1011.1 hPa Calm   7.9 km/h 98% 0.0 mm
03:35 4.3 °C 4.0 °C 1011.1 hPa Calm   6.9 km/h 98% 0.0 mm
03:40 4.3 °C 4.0 °C 1011.1 hPa South 4.0 km/h 5.0 km/h 98% 0.0 mm
03:45 4.1 °C 4.0 °C 1011.1 hPa Calm   5.8 km/h 98% 0.0 mm
03:50 4.1 °C 4.0 °C 1011.1 hPa Calm   6.1 km/h 98% 0.0 mm
03:55 4.1 °C 4.0 °C 1011.1 hPa South 2.1 km/h 8.7 km/h 98% 0.0 mm
04:00 4.1 °C 4.0 °C 1011.1 hPa SSE 6.9 km/h 9.0 km/h 98% 0.0 mm
04:05 4.1 °C 4.0 °C 1011.1 hPa Calm   10.1 km/h 98% 0.0 mm
04:10 4.2 °C 4.0 °C 1011.1 hPa SSW 8.7 km/h 10.1 km/h 98% 0.0 mm
04:16 4.2 °C 4.0 °C 1011.1 hPa SSW 2.1 km/h 10.1 km/h 98% 0.0 mm
04:21 4.2 °C 4.0 °C 1011.1 hPa South 4.0 km/h 10.1 km/h 98% 0.0 mm
04:26 4.1 °C 4.0 °C 1011.1 hPa South 1.8 km/h 6.9 km/h 98% 0.0 mm
04:31 4.0 °C 4.0 °C 1012.1 hPa Calm   4.7 km/h 98% 0.0 mm
04:36 3.9 °C 4.0 °C 1012.1 hPa Calm   3.2 km/h 98% 0.0 mm
04:41 3.8 °C 4.0 °C 1012.1 hPa Calm   3.2 km/h 98% 0.0 mm
04:46 3.6 °C 4.0 °C 1011.1 hPa Calm   3.2 km/h 98% 0.0 mm
04:51 3.5 °C 4.0 °C 1011.1 hPa Calm   1.4 km/h 98% 0.0 mm
04:56 3.5 °C 4.0 °C 1011.1 hPa Calm   1.4 km/h 98% 0.0 mm
05:01 3.5 °C 4.0 °C 1011.1 hPa Calm     98% 0.0 mm
05:06 3.6 °C 4.0 °C 1011.1 hPa Calm   4.3 km/h 98% 0.0 mm
05:11 3.6 °C 4.0 °C 1011.1 hPa Calm   4.3 km/h 98% 0.0 mm
05:16 3.5 °C 4.0 °C 1012.1 hPa Calm     98% 0.0 mm
05:21 3.5 °C 4.0 °C 1012.1 hPa Calm   4.3 km/h 98% 0.0 mm
05:26 3.4 °C 3.0 °C 1012.1 hPa Calm   5.5 km/h 98% 0.0 mm
05:31 3.4 °C 3.0 °C 1012.1 hPa Calm   6.4 km/h 98% 0.0 mm
05:36 3.4 °C 3.0 °C 1012.1 hPa South 8.7 km/h 8.7 km/h 98% 0.0 mm
05:41 3.4 °C 3.0 °C 1012.1 hPa Calm   8.7 km/h 98% 0.0 mm
05:46 3.4 °C 3.0 °C 1012.1 hPa Calm   8.7 km/h 98% 0.0 mm
05:51 3.5 °C 4.0 °C 1012.1 hPa Calm   5.0 km/h 98% 0.0 mm
05:56 3.6 °C 4.0 °C 1012.1 hPa Calm   6.1 km/h 98% 0.0 mm
06:01 3.6 °C 4.0 °C 1013.1 hPa Calm   6.1 km/h 98% 0.0 mm
06:06 3.6 °C 4.0 °C 1013.1 hPa Calm   4.7 km/h 98% 0.0 mm
06:12 3.6 °C 4.0 °C 1013.1 hPa Calm   4.7 km/h 98% 0.0 mm
06:17 3.6 °C 4.0 °C 1013.1 hPa Calm   5.5 km/h 98% 0.0 mm
06:22 3.5 °C 4.0 °C 1013.1 hPa Calm   9.3 km/h 98% 0.0 mm
06:27 3.6 °C 4.0 °C 1013.1 hPa SSE 10.1 km/h 10.1 km/h 98% 0.0 mm
06:32 3.6 °C 4.0 °C 1013.1 hPa South 9.3 km/h 10.5 km/h 98% 0.0 mm
06:37 3.6 °C 4.0 °C 1013.1 hPa South 5.8 km/h 10.5 km/h 98% 0.0 mm
06:42 3.6 °C 4.0 °C 1013.1 hPa Calm   9.3 km/h 98% 0.0 mm
06:47 3.6 °C 4.0 °C 1013.1 hPa SSW 3.5 km/h 8.7 km/h 98% 0.0 mm
06:52 3.5 °C 4.0 °C 1013.1 hPa South 3.2 km/h 5.0 km/h 98% 0.0 mm
06:57 3.6 °C 4.0 °C 1013.1 hPa Calm   4.3 km/h 98% 0.0 mm
07:02 3.6 °C 4.0 °C 1013.1 hPa Calm   6.4 km/h 98% 0.0 mm
07:07 3.7 °C 4.0 °C 1013.1 hPa Calm   6.4 km/h 98% 0.0 mm
07:12 3.5 °C 4.0 °C 1013.1 hPa Calm   5.8 km/h 98% 0.0 mm
07:17 3.4 °C 3.0 °C 1012.1 hPa Calm     98% 0.0 mm
07:22 3.2 °C 3.0 °C 1012.1 hPa Calm     98% 0.0 mm
07:27 3.1 °C 3.0 °C 1012.1 hPa Calm     98% 0.0 mm
07:32 3.1 °C 3.0 °C 1013.1 hPa Calm     98% 0.0 mm
07:37 3.1 °C 3.0 °C 1013.1 hPa Calm     98% 0.0 mm
07:42 3.0 °C 3.0 °C 1013.1 hPa Calm     98% 0.0 mm
07:47 3.0 °C 3.0 °C 1013.1 hPa Calm     98% 0.0 mm
07:52 2.9 °C 3.0 °C 1013.1 hPa Calm   1.4 km/h 98% 0.0 mm
07:57 2.9 °C 3.0 °C 1013.1 hPa Calm   1.8 km/h 98% 0.0 mm
08:02 3.0 °C 3.0 °C 1013.1 hPa Calm   1.8 km/h 98% 0.0 mm
08:07 3.0 °C 3.0 °C 1013.1 hPa Calm   1.4 km/h 98% 0.0 mm
08:12 3.0 °C 3.0 °C 1013.1 hPa Calm   1.4 km/h 98% 0.0 mm
08:17 3.0 °C 3.0 °C 1014.1 hPa Calm     98% 0.0 mm
08:22 3.0 °C 3.0 °C 1014.1 hPa Calm   1.4 km/h 98% 0.0 mm
08:27 2.8 °C 3.0 °C 1014.1 hPa Calm   1.4 km/h 98% 0.0 mm
08:32 2.8 °C 3.0 °C 1014.1 hPa Calm     98% 0.0 mm
08:37 2.8 °C 3.0 °C 1014.1 hPa Calm     98% 0.0 mm
08:42 2.8 °C 3.0 °C 1014.1 hPa Calm     98% 0.0 mm
08:47 2.7 °C 3.0 °C 1015.1 hPa Calm     98% 0.0 mm
08:52 2.6 °C 3.0 °C 1015.1 hPa Calm     98% 0.0 mm
08:57 2.7 °C 3.0 °C 1015.1 hPa Calm     98% 0.0 mm
09:00 2.7 °C 3.0 °C 1015.1 hPa Calm     98% 0.0 mm
09:05 2.8 °C 3.0 °C 1015.1 hPa Calm     98% 0.0 mm
09:11 2.9 °C 3.0 °C 1015.1 hPa Calm   2.6 km/h 98% 0.0 mm
09:16 3.1 °C 3.0 °C 1015.1 hPa South 1.4 km/h 2.6 km/h 98% 0.0 mm
09:21 3.3 °C 3.0 °C 1015.1 hPa Calm   1.4 km/h 98% 0.0 mm
09:26 3.4 °C 3.0 °C 1015.1 hPa Calm   1.4 km/h 98% 0.0 mm
09:31 3.6 °C 4.0 °C 1015.1 hPa Calm   3.2 km/h 98% 0.0 mm
09:36 3.7 °C 4.0 °C 1015.1 hPa Calm   3.2 km/h 98% 0.0 mm
09:41 3.8 °C 4.0 °C 1015.1 hPa Calm     98% 0.0 mm
09:46 3.8 °C 4.0 °C 1015.1 hPa Calm     98% 0.0 mm
09:51 3.8 °C 4.0 °C 1015.1 hPa Calm   4.3 km/h 98% 0.0 mm
09:56 3.8 °C 4.0 °C 1015.1 hPa Calm   4.3 km/h 98% 0.0 mm
10:01 3.9 °C 4.0 °C 1016.1 hPa Calm     98% 0.0 mm
10:06 4.1 °C 4.0 °C 1016.1 hPa Calm     98% 0.0 mm
10:11 4.4 °C 4.0 °C 1016.1 hPa Calm     98% 0.0 mm
10:16 4.5 °C 5.0 °C 1016.1 hPa Calm   3.2 km/h 98% 0.0 mm
10:21 4.7 °C 5.0 °C 1016.1 hPa Calm   7.2 km/h 98% 0.0 mm
10:26 5.0 °C 5.0 °C 1016.1 hPa Calm   7.2 km/h 98% 0.0 mm
10:31 5.1 °C 5.0 °C 1016.1 hPa South 4.7 km/h 5.8 km/h 98% 0.0 mm
10:36 5.1 °C 5.0 °C 1016.1 hPa Calm   9.3 km/h 98% 0.0 mm
10:41 5.3 °C 6.0 °C 1016.1 hPa South 2.6 km/h 9.3 km/h 98% 0.0 mm
10:46 5.3 °C 6.0 °C 1016.8 hPa Calm   2.6 km/h 98% 0.0 mm
10:51 5.3 °C 6.0 °C 1016.8 hPa SSW 4.3 km/h 4.3 km/h 98% 0.0 mm
10:56 5.4 °C 6.0 °C 1016.8 hPa South 4.0 km/h 4.3 km/h 98% 0.0 mm
11:01 5.4 °C 6.0 °C 1016.8 hPa Calm   6.1 km/h 98% 0.0 mm
11:06 5.5 °C 6.0 °C 1016.8 hPa Calm   6.1 km/h 98% 0.0 mm
11:11 5.6 °C 6.0 °C 1016.8 hPa South 6.9 km/h 9.0 km/h 98% 0.0 mm
11:17 5.7 °C 6.0 °C 1016.8 hPa Calm   9.0 km/h 98% 0.0 mm
11:22 5.8 °C 6.0 °C 1016.8 hPa Calm   4.3 km/h 98% 0.0 mm
11:27 6.4 °C 6.0 °C 1016.8 hPa Calm   9.7 km/h 98% 0.0 mm
11:32 6.6 °C 7.0 °C 1016.8 hPa Calm   9.7 km/h 98% 0.0 mm
11:37 6.8 °C 7.0 °C 1016.8 hPa SW 8.7 km/h 9.7 km/h 98% 0.0 mm
11:42 6.8 °C 7.0 °C 1016.8 hPa SSW 7.6 km/h 9.7 km/h 98% 0.0 mm
11:47 6.8 °C 7.0 °C 1016.8 hPa SW 11.6 km/h 11.6 km/h 98% 0.0 mm
11:52 6.8 °C 7.0 °C 1016.8 hPa SW 7.9 km/h 11.9 km/h 98% 0.0 mm
11:57 6.8 °C 7.0 °C 1016.8 hPa WSW 9.7 km/h 12.6 km/h 98% 0.0 mm
12:02 7.0 °C 7.0 °C 1016.8 hPa Calm   12.6 km/h 98% 0.0 mm
12:07 7.2 °C 7.0 °C 1016.8 hPa Calm   10.5 km/h 98% 0.0 mm
12:12 7.5 °C 8.0 °C 1016.8 hPa WSW 10.1 km/h 10.1 km/h 98% 0.0 mm
12:17 7.9 °C 8.0 °C 1016.8 hPa WSW 8.7 km/h 10.1 km/h 98% 0.0 mm
12:22 8.2 °C 8.0 °C 1016.8 hPa SSW 10.1 km/h 10.1 km/h 98% 0.0 mm
12:27 8.2 °C 8.0 °C 1016.8 hPa West 9.3 km/h 10.1 km/h 98% 0.0 mm
12:32 8.2 °C 8.0 °C 1016.8 hPa WSW 9.3 km/h 10.5 km/h 98% 0.0 mm
12:37 8.2 °C 8.0 °C 1016.8 hPa SW 9.3 km/h 10.5 km/h 98% 0.0 mm
12:42 8.2 °C 8.0 °C 1016.8 hPa WSW 7.9 km/h 10.1 km/h 98% 0.0 mm
12:47 8.1 °C 8.0 °C 1018.2 hPa WSW 5.8 km/h 10.1 km/h 98% 0.0 mm
12:52 8.1 °C 8.0 °C 1018.2 hPa WSW 7.9 km/h 10.1 km/h 98% 0.0 mm
12:57 8.1 °C 8.0 °C 1018.2 hPa WSW 6.4 km/h 10.1 km/h 98% 0.0 mm
13:02 8.2 °C 8.0 °C 1018.2 hPa WSW 12.2 km/h 12.2 km/h 98% 0.0 mm
13:07 8.2 °C 8.0 °C 1018.2 hPa West 9.0 km/h 12.2 km/h 98% 0.0 mm
13:12 8.4 °C 9.0 °C 1018.2 hPa WSW 9.3 km/h 12.6 km/h 98% 0.0 mm
13:17 8.4 °C 9.0 °C 1016.8 hPa West 11.6 km/h 12.6 km/h 98% 0.0 mm
13:23 8.4 °C 9.0 °C 1016.8 hPa West 9.0 km/h 11.6 km/h 98% 0.0 mm
13:28 8.4 °C 9.0 °C 1016.8 hPa WSW 9.7 km/h 12.2 km/h 98% 0.0 mm
13:33 8.4 °C 9.0 °C 1018.2 hPa West 7.2 km/h 12.2 km/h 98% 0.0 mm
13:38 8.5 °C 9.0 °C 1018.2 hPa Calm   11.6 km/h 98% 0.0 mm
13:43 8.4 °C 9.0 °C 1018.2 hPa Calm   11.9 km/h 98% 0.0 mm
13:48 8.4 °C 9.0 °C 1018.2 hPa West 7.2 km/h 11.9 km/h 98% 0.0 mm
13:53 8.5 °C 9.0 °C 1018.2 hPa Calm   8.7 km/h 98% 0.0 mm
13:58 8.5 °C 9.0 °C 1018.2 hPa WSW 7.2 km/h 9.0 km/h 98% 0.0 mm
14:03 8.5 °C 9.0 °C 1018.2 hPa WSW 9.7 km/h 9.7 km/h 98% 0.0 mm
14:08 8.4 °C 9.0 °C 1018.2 hPa West 5.8 km/h 9.7 km/h 98% 0.0 mm
14:13 8.5 °C 9.0 °C 1018.2 hPa West 8.7 km/h 10.5 km/h 98% 0.0 mm
14:18 8.6 °C 9.0 °C 1018.2 hPa Calm   10.5 km/h 98% 0.0 mm
14:23 8.7 °C 9.0 °C 1018.2 hPa Calm   10.1 km/h 98% 0.0 mm
14:28 8.7 °C 9.0 °C 1018.2 hPa Calm   6.9 km/h 98% 0.0 mm
14:33 8.7 °C 9.0 °C 1018.2 hPa WSW 6.1 km/h 6.9 km/h 97% 0.0 mm
14:38 8.7 °C 9.0 °C 1018.2 hPa Calm   6.9 km/h 97% 0.0 mm
14:43 8.7 °C 9.0 °C 1018.2 hPa Calm   6.9 km/h 97% 0.0 mm
14:48 8.8 °C 9.0 °C 1018.2 hPa Calm   4.0 km/h 97% 0.0 mm
14:53 8.9 °C 9.0 °C 1018.2 hPa Calm   3.2 km/h 97% 0.0 mm
14:58 8.9 °C 9.0 °C 1018.2 hPa Calm     97% 0.0 mm
15:03 9.0 °C 9.0 °C 1018.8 hPa Calm     96% 0.0 mm
15:08 9.1 °C 9.0 °C 1018.8 hPa Calm     96% 0.0 mm
15:13 9.1 °C 9.0 °C 1018.8 hPa Calm     96% 0.0 mm
15:18 9.0 °C 9.0 °C 1018.8 hPa Calm   5.0 km/h 95% 0.0 mm
15:23 8.9 °C 9.0 °C 1018.8 hPa NNE 1.8 km/h 5.0 km/h 95% 0.0 mm
15:28 8.9 °C 9.0 °C 1018.8 hPa Calm   1.8 km/h 95% 0.0 mm
15:33 9.0 °C 8.0 °C 1018.8 hPa Calm   1.8 km/h 94% 0.0 mm
15:38 9.0 °C 8.0 °C 1018.8 hPa WSW 5.8 km/h 6.1 km/h 94% 0.0 mm
15:43 8.8 °C 8.0 °C 1018.8 hPa North 6.9 km/h 14.3 km/h 94% 0.0 mm
15:49 8.8 °C 8.0 °C 1018.8 hPa North 6.1 km/h 14.3 km/h 93% 0.0 mm
15:54 8.7 °C 8.0 °C 1018.8 hPa NNW 8.7 km/h 9.3 km/h 92% 0.0 mm
15:59 8.7 °C 8.0 °C 1019.9 hPa WNW 1.4 km/h 8.7 km/h 92% 0.0 mm
16:04 8.7 °C 8.0 °C 1019.9 hPa NNW 9.7 km/h 9.7 km/h 92% 0.0 mm
16:09 8.7 °C 8.0 °C 1019.9 hPa North 11.6 km/h 11.6 km/h 92% 0.0 mm
16:14 8.6 °C 7.0 °C 1019.9 hPa NW 6.4 km/h 13.0 km/h 89% 0.0 mm
16:19 8.6 °C 7.0 °C 1019.9 hPa NNW 8.7 km/h 13.0 km/h 88% 0.0 mm
16:24 8.5 °C 7.0 °C 1019.9 hPa WNW 6.1 km/h 10.1 km/h 88% 0.0 mm
16:29 8.5 °C 7.0 °C 1019.9 hPa WNW 2.1 km/h 9.0 km/h 89% 0.0 mm
16:34 8.4 °C 7.0 °C 1019.9 hPa North 5.8 km/h 7.9 km/h 88% 0.0 mm
16:39 8.4 °C 7.0 °C 1019.9 hPa NW 5.8 km/h 7.9 km/h 88% 0.0 mm
16:44 8.3 °C 7.0 °C 1019.9 hPa NNW 6.1 km/h 9.0 km/h 87% 0.0 mm
16:49 8.1 °C 6.0 °C 1019.9 hPa Calm   9.0 km/h 87% 0.0 mm
16:54 8.0 °C 6.0 °C 1019.9 hPa NW 8.7 km/h 8.7 km/h 87% 0.0 mm
16:59 7.9 °C 6.0 °C 1020.9 hPa NNW 1.4 km/h 8.7 km/h 87% 0.0 mm
17:04 7.7 °C 6.0 °C 1020.9 hPa NW 6.9 km/h 7.9 km/h 87% 0.0 mm
17:09 7.5 °C 6.0 °C 1020.9 hPa WNW 2.1 km/h 7.6 km/h 87% 0.0 mm
17:14 7.5 °C 6.0 °C 1020.9 hPa Calm   7.6 km/h 88% 0.0 mm
17:19 7.3 °C 6.0 °C 1020.9 hPa Calm   5.0 km/h 88% 0.0 mm
17:24 7.0 °C 5.0 °C 1020.9 hPa Calm   2.6 km/h 88% 0.0 mm
17:29 6.8 °C 5.0 °C 1020.9 hPa Calm   2.6 km/h 89% 0.0 mm
17:34 6.5 °C 5.0 °C 1020.9 hPa Calm   2.1 km/h 88% 0.0 mm
17:39 6.4 °C 5.0 °C 1020.9 hPa Calm   2.1 km/h 89% 0.0 mm
17:44 6.4 °C 5.0 °C 1020.9 hPa NW 1.8 km/h 5.0 km/h 89% 0.0 mm
17:49 6.3 °C 5.0 °C 1020.9 hPa NNW 9.3 km/h 9.3 km/h 90% 0.0 mm
17:54 6.1 °C 5.0 °C 1020.9 hPa Calm   9.3 km/h 91% 0.0 mm
17:59 6.0 °C 5.0 °C 1021.9 hPa Calm   6.4 km/h 91% 0.0 mm
18:04 5.9 °C 5.0 °C 1021.9 hPa Calm   4.0 km/h 91% 0.0 mm
18:09 5.7 °C 5.0 °C 1021.9 hPa Calm     91% 0.0 mm
18:14 5.7 °C 5.0 °C 1021.9 hPa Calm   5.0 km/h 92% 0.0 mm
18:19 5.7 °C 5.0 °C 1021.9 hPa Calm   5.0 km/h 93% 0.0 mm
18:24 5.7 °C 5.0 °C 1021.9 hPa Calm   5.5 km/h 93% 0.0 mm
18:29 5.7 °C 5.0 °C 1021.9 hPa West 2.6 km/h 5.5 km/h 94% 0.0 mm
18:34 5.7 °C 5.0 °C 1021.9 hPa NNW 1.4 km/h 5.8 km/h 94% 0.0 mm
18:39 5.7 °C 5.0 °C 1021.9 hPa Calm   5.8 km/h 95% 0.0 mm
18:44 5.7 °C 5.0 °C 1022.9 hPa Calm   4.0 km/h 95% 0.0 mm
18:49 5.7 °C 5.0 °C 1022.9 hPa Calm   2.6 km/h 95% 0.0 mm
18:54 5.8 °C 6.0 °C 1022.9 hPa Calm   4.0 km/h 95% 0.0 mm
19:00 5.9 °C 6.0 °C 1022.9 hPa NW 6.1 km/h 6.9 km/h 96% 0.0 mm
19:05 6.0 °C 6.0 °C 1022.9 hPa West 2.1 km/h 6.4 km/h 96% 0.0 mm
19:10 6.1 °C 6.0 °C 1022.9 hPa Calm   6.4 km/h 96% 0.0 mm
19:15 6.1 °C 6.0 °C 1021.9 hPa Calm   6.4 km/h 96% 0.0 mm
19:20 6.2 °C 6.0 °C 1021.9 hPa Calm   6.4 km/h 96% 0.0 mm
19:25 6.1 °C 6.0 °C 1021.9 hPa Calm   6.4 km/h 96% 0.0 mm
19:30 6.1 °C 6.0 °C 1021.9 hPa Calm   4.0 km/h 96% 0.0 mm
19:35 6.1 °C 6.0 °C 1021.9 hPa Calm   5.8 km/h 96% 0.0 mm
19:40 6.0 °C 6.0 °C 1021.9 hPa Calm   5.8 km/h 96% 0.0 mm
19:45 5.9 °C 6.0 °C 1022.9 hPa Calm     96% 0.0 mm
19:50 5.8 °C 6.0 °C 1022.9 hPa Calm   6.4 km/h 95% 0.0 mm
19:55 5.7 °C 5.0 °C 1022.9 hPa Calm   6.4 km/h 95% 0.0 mm
20:00 5.6 °C 5.0 °C 1023.9 hPa West 2.1 km/h 6.4 km/h 95% 0.0 mm
20:05 5.7 °C 6.0 °C 1023.9 hPa Calm   9.7 km/h 96% 0.0 mm
20:10 5.8 °C 6.0 °C 1023.9 hPa Calm   9.7 km/h 97% 0.0 mm
20:15 5.9 °C 6.0 °C 1024.9 hPa NW 3.2 km/h 7.6 km/h 97% 0.0 mm
20:20 6.0 °C 6.0 °C 1024.9 hPa Calm   10.5 km/h 97% 0.0 mm
20:25 6.1 °C 6.0 °C 1024.9 hPa NW 1.4 km/h 10.5 km/h 97% 0.0 mm
20:30 6.1 °C 6.0 °C 1024.9 hPa West 2.1 km/h 9.3 km/h 97% 0.0 mm
20:35 6.1 °C 6.0 °C 1024.9 hPa WNW 4.0 km/h 7.9 km/h 96% 0.0 mm
20:40 6.1 °C 6.0 °C 1024.9 hPa NNE 4.3 km/h 11.9 km/h 96% 0.0 mm
20:46 6.2 °C 6.0 °C 1024.9 hPa North 2.1 km/h 11.9 km/h 96% 0.0 mm
20:51 6.2 °C 6.0 °C 1024.9 hPa NNW 5.0 km/h 9.0 km/h 96% 0.0 mm
20:56 6.3 °C 6.0 °C 1024.9 hPa WNW 4.0 km/h 9.0 km/h 96% 0.0 mm
21:01 6.3 °C 6.0 °C 1024.9 hPa West 6.9 km/h 9.7 km/h 95% 0.0 mm
21:06 6.3 °C 6.0 °C 1024.9 hPa WNW 5.8 km/h 9.7 km/h 95% 0.0 mm
21:11 6.3 °C 6.0 °C 1024.9 hPa Calm   7.2 km/h 95% 0.0 mm
21:16 6.3 °C 6.0 °C 1024.9 hPa Calm   8.7 km/h 95% 0.0 mm
21:21 6.3 °C 6.0 °C 1024.9 hPa NNW 1.4 km/h 8.7 km/h 94% 0.0 mm
21:26 6.3 °C 6.0 °C 1024.9 hPa Calm   4.0 km/h 94% 0.0 mm
21:31 6.2 °C 6.0 °C 1024.9 hPa Calm   5.8 km/h 94% 0.0 mm
21:36 6.2 °C 6.0 °C 1024.9 hPa Calm   5.8 km/h 94% 0.0 mm
21:41 6.2 °C 6.0 °C 1024.9 hPa Calm   4.7 km/h 94% 0.0 mm
21:46 6.2 °C 6.0 °C 1024.9 hPa Calm   4.7 km/h 94% 0.0 mm
21:51 6.2 °C 6.0 °C 1024.9 hPa Calm   5.8 km/h 94% 0.0 mm
21:56 6.2 °C 6.0 °C 1024.9 hPa Calm   5.8 km/h 94% 0.0 mm
22:01 6.2 °C 6.0 °C 1024.9 hPa Calm   1.8 km/h 94% 0.0 mm
22:07 6.1 °C 5.0 °C 1024.9 hPa Calm     94% 0.0 mm
22:12 6.1 °C 5.0 °C 1024.9 hPa Calm   5.0 km/h 94% 0.0 mm
22:17 6.1 °C 5.0 °C 1026.0 hPa Calm   5.0 km/h 94% 0.0 mm
22:22 5.9 °C 6.0 °C 1026.0 hPa Calm   4.3 km/h 95% 0.0 mm
22:27 5.8 °C 6.0 °C 1026.0 hPa Calm   4.3 km/h 95% 0.0 mm
22:32 5.7 °C 5.0 °C 1026.0 hPa Calm   4.3 km/h 95% 0.0 mm
22:37 5.6 °C 5.0 °C 1026.0 hPa Calm   4.3 km/h 95% 0.0 mm
22:42 5.6 °C 5.0 °C 1026.0 hPa Calm   2.6 km/h 95% 0.0 mm
22:48 5.5 °C 5.0 °C 1026.0 hPa Calm   1.8 km/h 95% 0.0 mm
22:53 5.4 °C 5.0 °C 1026.0 hPa Calm     95% 0.0 mm
22:58 5.4 °C 5.0 °C 1026.0 hPa Calm   2.6 km/h 95% 0.0 mm
23:03 5.4 °C 5.0 °C 1026.0 hPa Calm   3.2 km/h 96% 0.0 mm
23:08 5.3 °C 5.0 °C 1026.0 hPa Calm   3.2 km/h 96% 0.0 mm
23:13 5.3 °C 5.0 °C 1026.0 hPa Calm   4.7 km/h 96% 0.0 mm
23:18 5.2 °C 5.0 °C 1026.0 hPa Calm   4.7 km/h 96% 0.0 mm
23:23 5.1 °C 5.0 °C 1026.0 hPa Calm   4.7 km/h 96% 0.0 mm
23:28 5.1 °C 5.0 °C 1026.0 hPa Calm     97% 0.0 mm
23:33 5.2 °C 5.0 °C 1026.0 hPa Calm     97% 0.0 mm
23:38 5.2 °C 5.0 °C 1026.0 hPa Calm     97% 0.0 mm
23:43 5.2 °C 5.0 °C 1026.0 hPa Calm     97% 0.0 mm
23:48 5.1 °C 5.0 °C 1026.0 hPa Calm     98% 0.0 mm
23:53 5.1 °C 5.0 °C 1026.0 hPa Calm     98% 0.0 mm
23:58 5.1 °C 5.0 °C 1026.0 hPa Calm     98% 0.0 mm
Données Historique de Météo Turbie

Mise a jour : 20/05/2018 19:38:13
Généré par Cumulus 1.9.4 (1099)